Date String (YYYY-MM-DD hh:mm:ss) UTC,Instrument flags,absolute air pressure of the measurement (hPa),sample flow rate (lpm),inlet stack bypass flow (lpm),air temperature of the measurement (°C),ambient temperature measured by the external sensor (°C),aerosol sample conditioner tube jacket temperature (°C),OPC LED temperature (°C),internal box temperature (°C),relative humidity of the measurement (%),span deviation,mass concentration of particles derived from Lorenz-Mie calculation of OPC scattering (μg/m³),mass concentration of particles derived from Lorenz-Mie calculation of OPC scattering (μg/m³),mass concentration of particles derived from Lorenz-Mie calculation of OPC scattering (μg/m³)
DateTimeUTC,F1_M11,P_M11,Q1_M11,Q2_M11,T1_M11,T2_M11,T3_M11,T4_M11,T5_M11,U1_M11,ZSPAN_M11,X0_M11,X2_M11,X1_M11
2024-06-10 04:00:00,SystemResetWarning,0831.6,5.00,000.00,030.1,029.5,000.0,038.3,031.9,037.4,0000.0,0012.47,0006.31,0005.27
2024-06-10 04:01:00,SystemResetWarning,0831.6,5.00,000.00,030.1,029.6,000.0,038.3,031.9,037.2,0000.0,0012.98,0006.26,0005.23
2024-06-10 04:02:00,SystemResetWarning,0831.6,5.00,000.00,030.2,029.6,000.0,038.3,032.0,037.1,0000.0,0013.33,0006.30,0005.19
2024-06-10 04:03:00,SystemResetWarning,0831.7,5.00,000.00,030.2,029.7,000.0,038.4,032.0,037.0,0000.0,0014.24,0006.24,0005.15
2024-06-10 04:04:00,SystemResetWarning,0831.6,5.00,000.00,030.2,029.7,000.0,038.4,032.0,036.9,0000.0,0014.84,0006.14,0005.11
2024-06-10 04:05:00,SystemResetWarning,0831.7,5.00,000.00,030.3,029.8,000.0,038.4,032.1,036.7,0000.0,0015.66,0006.11,0005.08
2024-06-10 04:06:00,SystemResetWarning,0831.6,5.00,000.00,030.3,029.8,000.0,038.5,032.1,036.6,0000.0,0016.14,0006.17,0005.06
2024-06-10 04:07:00,SystemResetWarning,0831.7,5.00,000.00,030.3,029.8,000.0,038.5,032.1,036.6,0000.0,0016.02,0006.15,0005.04
2024-06-10 04:08:00,SystemResetWarning,0831.7,5.00,000.00,030.4,029.9,000.0,038.5,032.2,036.4,0000.0,0016.33,0006.09,0005.03
2024-06-10 04:09:00,SystemResetWarning,0831.6,5.00,000.00,030.4,029.9,000.0,038.6,032.2,036.3,0000.0,0017.06,0006.03,0005.00
2024-06-10 04:10:00,SystemResetWarning,0831.6,4.99,000.00,030.4,029.9,000.0,038.6,032.2,036.2,0000.0,0017.92,0006.04,0005.01
2024-06-10 04:11:00,SystemResetWarning,0831.7,5.00,000.00,030.5,030.0,000.0,038.7,032.2,036.2,0000.0,0018.25,0006.04,0005.00
2024-06-10 04:12:00,SystemResetWarning,0831.7,5.00,000.00,030.5,030.0,000.0,038.7,032.3,036.1,0000.0,0017.80,0006.07,0004.99
2024-06-10 04:13:00,SystemResetWarning,0831.7,5.00,000.00,030.5,030.0,000.0,038.7,032.3,036.0,0000.0,0017.43,0005.98,0004.98
2024-06-10 04:14:00,SystemResetWarning,0831.9,5.00,000.00,030.6,030.1,000.0,038.7,032.3,036.0,0000.0,0017.11,0005.95,0004.98
2024-06-10 04:15:00,SystemResetWarning,0831.8,5.00,000.00,030.6,030.1,000.0,038.8,032.4,035.9,0000.0,0016.52,0005.94,0004.98
2024-06-10 04:16:00,SystemResetWarning,0831.8,5.01,000.00,030.6,030.1,000.0,038.8,032.4,035.9,0000.0,0015.69,0005.92,0004.99
2024-06-10 04:17:00,SystemResetWarning,0831.9,4.99,000.00,030.6,029.2,000.0,038.9,031.9,035.9,0000.0,0015.25,0005.87,0004.99
2024-06-10 04:18:00,SystemResetWarning,0831.8,5.00,000.00,030.2,027.1,000.0,038.9,030.9,036.7,0000.0,0015.16,0005.84,0005.00
2024-06-10 04:19:00,SystemResetWarning,0831.7,5.01,000.00,029.8,026.5,000.0,038.9,030.5,037.4,0000.0,0014.68,0005.88,0005.03
2024-06-10 04:20:00,SystemResetWarning,0831.7,5.01,000.00,029.7,026.8,000.0,038.7,030.6,037.9,0000.0,0014.54,0005.95,0005.06
2024-06-10 04:21:00,SystemResetWarning,0831.7,5.00,000.00,029.6,027.2,000.0,038.6,030.9,037.9,0000.0,0013.36,0005.95,0005.08
2024-06-10 04:22:00,SystemResetWarning,0832.2,5.00,000.00,029.7,027.6,000.0,038.5,031.1,037.9,0000.0,0013.03,0005.98,0005.11
2024-06-10 04:23:00,SystemResetWarning,0832.3,5.01,000.00,029.7,028.0,000.0,038.4,031.2,037.8,0000.0,0013.87,0006.02,0005.14
2024-06-10 04:24:00,SystemResetWarning,0831.9,5.00,000.00,029.7,028.3,000.0,038.4,031.3,037.7,0000.0,0014.00,0006.09,0005.17
2024-06-10 04:25:00,SystemResetWarning,0831.8,4.99,000.00,029.7,028.5,000.0,038.4,031.4,037.6,0000.0,0013.46,0006.13,0005.19
2024-06-10 04:26:00,SystemResetWarning,0831.8,5.00,000.00,029.8,028.7,000.0,038.3,031.5,037.6,0000.0,0013.18,0006.20,0005.22
2024-06-10 04:27:00,SystemResetWarning,0831.8,5.00,000.00,029.8,028.9,000.0,038.3,031.6,037.6,0000.0,0013.43,0006.27,0005.26
2024-06-10 04:28:00,SystemResetWarning,0831.8,5.00,000.00,029.9,029.0,000.0,038.3,031.6,037.5,0000.0,0013.54,0006.34,0005.29
2024-06-10 04:29:00,SystemResetWarning,0831.9,5.00,000.00,029.9,029.2,000.0,038.3,031.7,037.4,0000.0,0014.08,0006.38,0005.31
2024-06-10 04:30:00,SystemResetWarning,0831.9,5.00,000.00,029.9,029.3,000.0,038.3,031.7,037.3,0000.0,0014.56,0006.36,0005.32
2024-06-10 04:31:00,SystemResetWarning,0831.9,4.99,000.00,030.0,029.4,000.0,038.4,031.8,037.2,0000.0,0013.93,0006.32,0005.34
2024-06-10 04:32:00,SystemResetWarning,0831.9,4.99,000.00,030.0,029.4,000.0,038.4,031.8,037.1,0000.0,0013.71,0006.33,0005.35
2024-06-10 04:33:00,SystemResetWarning,0831.8,5.00,000.00,030.1,029.5,000.0,038.4,031.9,036.9,0000.0,0014.25,0006.35,0005.36
2024-06-10 04:34:00,SystemResetWarning,0831.9,5.01,000.00,030.1,029.6,000.0,038.4,031.9,036.8,0000.0,0014.09,0006.29,0005.37
2024-06-10 04:35:00,SystemResetWarning,0831.9,5.01,000.00,030.2,029.6,000.0,038.4,032.0,036.7,0000.0,0013.76,0006.26,0005.39
2024-06-10 04:36:00,SystemResetWarning,0831.9,4.99,000.00,030.2,029.7,000.0,038.5,032.0,036.8,0000.0,0013.86,0006.29,0005.42
2024-06-10 04:37:00,SystemResetWarning,0832.0,4.99,000.00,030.2,029.7,000.0,038.5,032.0,036.7,0000.0,0013.98,0006.32,0005.45
2024-06-10 04:38:00,SystemResetWarning,0832.0,5.00,000.00,030.3,029.8,000.0,038.5,032.1,036.6,0000.0,0014.47,0006.31,0005.47
2024-06-10 04:39:00,SystemResetWarning,0832.0,5.01,000.00,030.3,029.8,000.0,038.6,032.1,036.5,0000.0,0014.48,0006.25,0005.49
2024-06-10 04:40:00,SystemResetWarning,0832.0,5.01,000.00,030.4,029.9,000.0,038.6,032.1,036.4,0000.0,0014.45,0006.26,0005.53
2024-06-10 04:41:00,SystemResetWarning,0832.1,5.01,000.00,030.4,029.9,000.0,038.6,032.2,036.4,0000.0,0014.32,0006.35,0005.56
2024-06-10 04:42:00,SystemResetWarning,0832.1,4.99,000.00,030.4,029.9,000.0,038.6,032.2,036.2,0000.0,0014.69,0006.45,0005.58
2024-06-10 04:43:00,SystemResetWarning,0832.1,4.99,000.00,030.5,030.0,000.0,038.7,032.3,036.2,0000.0,0014.78,0006.48,0005.62
2024-06-10 04:44:00,SystemResetWarning,0832.1,5.00,000.00,030.5,030.0,000.0,038.7,032.3,036.1,0000.0,0014.48,0006.48,0005.65
2024-06-10 04:45:00,SystemResetWarning,0832.1,5.00,000.00,030.5,030.0,000.0,038.7,032.3,036.0,0000.0,0014.16,0006.52,0005.68
2024-06-10 04:46:00,SystemResetWarning,0832.1,5.00,000.00,030.6,030.1,000.0,038.8,032.3,036.0,0000.0,0014.49,0006.58,0005.70
2024-06-10 04:47:00,SystemResetWarning,0832.1,5.02,000.00,030.6,030.1,000.0,038.8,032.4,035.9,0000.0,0014.76,0006.61,0005.72
2024-06-10 04:48:00,SystemResetWarning,0832.0,5.01,000.00,030.6,030.1,000.0,038.8,032.4,035.8,0000.0,0014.76,0006.67,0005.73
2024-06-10 04:49:00,SystemResetWarning,0832.0,4.99,000.00,030.7,030.1,000.0,038.8,032.4,035.7,0000.0,0014.12,0006.71,0005.76
2024-06-10 04:50:00,SystemResetWarning,0832.0,4.98,000.00,030.7,030.2,000.0,038.9,032.4,035.6,0000.0,0013.85,0006.80,0005.80
2024-06-10 04:51:00,SystemResetWarning,0831.9,5.01,000.00,030.7,030.2,000.0,038.9,032.5,035.6,0000.0,0013.91,0006.83,0005.81
2024-06-10 04:52:00,SystemResetWarning,0831.9,5.00,000.00,030.7,030.2,000.0,038.9,032.5,035.5,0000.0,0013.95,0006.86,0005.83
2024-06-10 04:53:00,SystemResetWarning,0832.0,4.99,000.00,030.6,028.6,000.0,039.0,031.7,035.7,0000.0,0014.12,0006.83,0005.85
2024-06-10 04:54:00,SystemResetWarning,0831.7,5.01,000.00,030.2,026.8,000.0,039.0,030.8,036.7,0000.0,0014.39,0006.85,0005.88
2024-06-10 04:55:00,SystemResetWarning,0831.7,5.01,000.00,029.9,026.5,000.0,038.9,030.5,037.5,0000.0,0014.78,0006.90,0005.91
2024-06-10 04:56:00,SystemResetWarning,0831.7,5.01,000.00,029.7,026.9,000.0,038.8,030.7,037.7,0000.0,0015.26,0006.99,0005.93
2024-06-10 04:57:00,SystemResetWarning,0831.7,4.99,000.00,029.7,027.3,000.0,038.6,031.0,037.7,0000.0,0015.12,0007.06,0005.95
2024-06-10 04:58:00,SystemResetWarning,0831.7,4.99,000.00,029.7,027.7,000.0,038.5,031.2,037.7,0000.0,0015.12,0007.06,0005.96
2024-06-10 04:59:00,SystemResetWarning,0831.7,5.01,000.00,029.7,028.1,000.0,038.5,031.3,037.6,0000.0,0015.25,0007.06,0005.97
